Michigan City, IN

6:45 PM CST on February 07, 2016 (GMT -0600)
Michigan City Municipal

Weather History for KMGC - June, 2013

Change the Weather History Date:

Saturday, June 29, 2013

  Actual Average (KVPZ) Record (KVPZ)
Temperature  
Mean Temperature 64 °F 72 °F  
Max Temperature 69 °F 83 °F 91 °F (2005)
Min Temperature 60 °F 62 °F 53 °F (2004)
Degree Days  
Heating Degree Days 0 0  
Month to date heating degree days 41  
Since 1 June heating degree days 41  
Since 1 July heating degree days 6320  
Cooling Degree Days 0 8  
Month to date cooling degree days 157  
Year to date cooling degree days 204  
Since 1 June cooling degree days 157  
Growing Degree Days 14 (Base 50)    
Moisture  
Dew Point 61 °F    
Average Humidity 90    
Maximum Humidity 100    
Minimum Humidity 78    
Precipitation  
Precipitation 0.00 in 0.13 in 0.18 in (2012)
Month to date precipitation 3.78  
Year to date precipitation 16.76  
Sea Level Pressure  
Sea Level Pressure 29.65 in    
Wind  
Wind Speed 4 mph (North)    
Max Wind Speed 15 mph    
Max Gust Speed 20 mph    
Visibility 10 miles    
Events      
T = Trace of Precipitation, MM = Missing Value Source: NWS Daily Summary

Daily Weather History Graph

Daily Weather History Graph

Search for Another Location

Airport or City:

Trip Planner

Search our weather history database for the weather conditions in past years. The results will help you decide how hot, cold, wet, or windy it might be!

Date:

Astronomy

Jun. 29, 2013 Rise Set
Actual Time 5:15 AM CDT 8:25 PM CDT
Civil Twilight 4:41 AM CDT 8:59 PM CDT
Nautical Twilight 3:57 AM CDT 9:43 PM CDT
Astronomical Twilight 3:05 AM CDT 10:35 PM CDT
Moon No Moon Rise 12:33 PM CDT (6/29)
Length of Visible Light 16h 18m
Length of Day
15h 10m
Waning Gibbous, 55% of the Moon is Illuminated
Jun 29
Waning Gibbous
Jun 29
Last Quarter
Jul 8
New
Jul 15
First Quarter
Jul 22
Full

Hourly Weather History & Observations

Time (CDT) Temp. Dew Point Humidity Pressure Visibility Wind Dir Wind Speed Gust Speed Precip Events Conditions
12:15 AM 62.6 °F 60.8 °F 94% 29.60 in 10.0 mi Calm Calm - N/A   Clear
12:35 AM 62.6 °F 60.8 °F 94% 29.60 in 10.0 mi Calm Calm - N/A   Clear
12:55 AM 62.6 °F 60.8 °F 94% 29.60 in 10.0 mi Calm Calm - N/A   Clear
1:15 AM 62.6 °F 60.8 °F 94% 29.60 in 10.0 mi Calm Calm - N/A   Clear
1:35 AM 62.6 °F 60.8 °F 94% 29.60 in 10.0 mi North 4.6 mph - N/A   Clear
1:55 AM 62.6 °F 60.8 °F 94% 29.59 in 10.0 mi NNW 3.5 mph - N/A   Clear
2:15 AM 62.6 °F 60.8 °F 94% 29.59 in 10.0 mi Calm Calm - N/A   Clear
2:35 AM 60.8 °F 60.8 °F 100% 29.59 in 10.0 mi Calm Calm - N/A   Clear
2:55 AM 60.8 °F 60.8 °F 100% 29.59 in 7.0 mi Calm Calm - N/A   Clear
3:15 AM 60.8 °F 59.0 °F 94% 29.59 in 7.0 mi Calm Calm - N/A   Clear
3:35 AM 60.8 °F 59.0 °F 94% 29.59 in 10.0 mi West 3.5 mph - N/A   Scattered Clouds
3:55 AM 62.6 °F 60.8 °F 94% 29.59 in 10.0 mi Calm Calm - N/A   Overcast
4:15 AM 62.6 °F 60.8 °F 94% 29.60 in 10.0 mi WNW 3.5 mph - N/A   Overcast
4:35 AM 62.6 °F 60.8 °F 94% 29.60 in 10.0 mi NW 3.5 mph - N/A   Overcast
4:55 AM 62.6 °F 60.8 °F 94% 29.60 in 10.0 mi NW 3.5 mph - N/A   Overcast
5:15 AM 62.6 °F 60.8 °F 94% 29.61 in 10.0 mi NNW 4.6 mph - N/A   Overcast
5:35 AM 62.6 °F 60.8 °F 94% 29.61 in 10.0 mi NNW 3.5 mph - N/A   Overcast
5:55 AM 62.6 °F 60.8 °F 94% 29.61 in 10.0 mi NW 4.6 mph - N/A   Overcast
6:15 AM 62.6 °F 60.8 °F 94% 29.62 in 10.0 mi NW 4.6 mph - N/A   Overcast
6:35 AM 60.8 °F 60.8 °F 100% 29.61 in 5.0 mi NW 4.6 mph - N/A   Overcast
6:55 AM 60.8 °F 60.8 °F 100% 29.62 in 2.5 mi WNW 3.5 mph - N/A   Overcast
7:15 AM 60.8 °F 60.8 °F 100% 29.61 in 4.0 mi NW 4.6 mph - N/A   Overcast
7:35 AM 60.8 °F 60.8 °F 100% 29.61 in 4.0 mi Calm Calm - N/A   Overcast
7:55 AM 60.8 °F 60.8 °F 100% 29.62 in 5.0 mi West 4.6 mph - N/A   Overcast
8:15 AM 62.6 °F 60.8 °F 94% 29.63 in 10.0 mi Calm Calm - N/A   Overcast
8:35 AM 62.6 °F 60.8 °F 94% 29.63 in 10.0 mi NW 3.5 mph - N/A   Overcast
8:55 AM 62.6 °F 60.8 °F 94% 29.64 in 10.0 mi Calm Calm - N/A   Overcast
9:15 AM 64.4 °F 60.8 °F 88% 29.63 in 10.0 mi Calm Calm - N/A   Overcast
9:35 AM 64.4 °F 60.8 °F 88% 29.63 in 10.0 mi NNW 4.6 mph - N/A   Overcast
9:55 AM 64.4 °F 60.8 °F 88% 29.63 in 10.0 mi North 3.5 mph - N/A   Overcast
10:15 AM 64.4 °F 60.8 °F 88% 29.64 in 10.0 mi NNW 3.5 mph - N/A   Overcast
10:35 AM 64.4 °F 60.8 °F 88% 29.64 in 10.0 mi NNW 5.8 mph - N/A   Overcast
10:55 AM 64.4 °F 60.8 °F 88% 29.64 in 10.0 mi North 5.8 mph - N/A   Overcast
11:15 AM 66.2 °F 60.8 °F 83% 29.64 in 10.0 mi North 4.6 mph - N/A   Overcast
11:35 AM 68.0 °F 62.6 °F 83% 29.64 in 10.0 mi NNE 3.5 mph - N/A   Overcast
11:55 AM 68.0 °F 62.6 °F 83% 29.64 in 10.0 mi NNW 4.6 mph - N/A   Overcast
12:15 PM 68.0 °F 62.6 °F 83% 29.64 in 10.0 mi NNW 6.9 mph - N/A   Overcast
12:35 PM 69.8 °F 62.6 °F 78% 29.64 in 10.0 mi North 5.8 mph - N/A   Mostly Cloudy
12:55 PM 69.8 °F 62.6 °F 78% 29.64 in 10.0 mi NNW 5.8 mph - N/A   Scattered Clouds
1:15 PM 69.8 °F 62.6 °F 78% 29.64 in 10.0 mi NNW 6.9 mph - N/A   Mostly Cloudy
1:35 PM 69.8 °F 62.6 °F 78% 29.65 in 10.0 mi North 6.9 mph - N/A   Overcast
1:55 PM 68.0 °F 62.6 °F 83% 29.65 in 10.0 mi NNW 10.4 mph - N/A   Overcast
2:15 PM 68.0 °F 62.6 °F 83% 29.65 in 10.0 mi North 10.4 mph 16.1 mph N/A   Overcast
2:35 PM 66.2 °F 62.6 °F 88% 29.66 in 10.0 mi NNW 11.5 mph - N/A   Overcast
2:55 PM 66.2 °F 62.6 °F 88% 29.67 in 10.0 mi North 9.2 mph - N/A   Overcast
3:15 PM 64.4 °F 60.8 °F 88% 29.67 in 10.0 mi North 13.8 mph 18.4 mph N/A   Overcast
3:35 PM 68.0 °F 62.6 °F 83% 29.67 in 10.0 mi North 11.5 mph - N/A   Overcast
3:55 PM 68.0 °F 62.6 °F 83% 29.67 in 10.0 mi North 10.4 mph 19.6 mph N/A   Overcast
4:15 PM 66.2 °F 60.8 °F 83% 29.68 in 10.0 mi North 15.0 mph 19.6 mph N/A   Overcast
4:35 PM 64.4 °F 60.8 °F 88% 29.68 in 10.0 mi North 9.2 mph 16.1 mph N/A   Overcast
4:55 PM 64.4 °F 60.8 °F 88% 29.68 in 10.0 mi North 9.2 mph - N/A   Overcast
5:15 PM 64.4 °F 60.8 °F 88% 29.68 in 10.0 mi North 8.1 mph - N/A   Overcast
5:35 PM 64.4 °F 60.8 °F 88% 29.68 in 10.0 mi North 6.9 mph - N/A   Overcast
5:55 PM 64.4 °F 60.8 °F 88% 29.68 in 10.0 mi North 8.1 mph - N/A   Overcast
6:15 PM 64.4 °F 60.8 °F 88% 29.68 in 10.0 mi North 8.1 mph - N/A   Overcast
6:35 PM 64.4 °F 60.8 °F 88% 29.69 in 10.0 mi North 8.1 mph - N/A   Overcast
6:55 PM 64.4 °F 62.6 °F 94% 29.69 in 10.0 mi North 8.1 mph - N/A   Overcast
7:15 PM 64.4 °F 62.6 °F 94% 29.70 in 10.0 mi North 8.1 mph - N/A   Overcast
7:35 PM 64.4 °F 62.6 °F 94% 29.70 in 10.0 mi North 8.1 mph - N/A   Overcast
7:55 PM 64.4 °F 62.6 °F 94% 29.70 in 10.0 mi North 9.2 mph - N/A   Overcast
8:15 PM 64.4 °F 62.6 °F 94% 29.71 in 10.0 mi North 9.2 mph - N/A   Overcast
8:35 PM 64.4 °F 62.6 °F 94% 29.71 in 10.0 mi North 9.2 mph - N/A   Overcast
8:55 PM 64.4 °F 60.8 °F 88% 29.72 in 10.0 mi North 8.1 mph - N/A   Overcast
9:15 PM 64.4 °F 60.8 °F 88% 29.73 in 10.0 mi North 9.2 mph - N/A   Overcast
9:35 PM 62.6 °F 60.8 °F 94% 29.73 in 10.0 mi North 6.9 mph - N/A   Overcast
9:55 PM 62.6 °F 60.8 °F 94% 29.73 in 10.0 mi North 9.2 mph - N/A   Overcast
10:15 PM 64.4 °F 60.8 °F 88% 29.74 in 10.0 mi North 6.9 mph - N/A   Overcast
10:35 PM 64.4 °F 60.8 °F 88% 29.74 in 10.0 mi NNE 4.6 mph - N/A   Overcast
10:55 PM 64.4 °F 60.8 °F 88% 29.74 in 10.0 mi NNE 3.5 mph - N/A   Overcast
11:15 PM 64.4 °F 60.8 °F 88% 29.74 in 10.0 mi NNE 4.6 mph - N/A   Overcast
11:35 PM 64.4 °F 60.8 °F 88% 29.75 in 10.0 mi NNE 3.5 mph - N/A   Overcast
11:55 PM 64.4 °F 60.8 °F 88% 29.75 in 10.0 mi NNE 3.5 mph - N/A   Overcast